Time,TemperatureF,DewpointF,PressureIn,WindDirection,WindDirectionDegrees,WindSpeedMPH,WindSpeedGustMPH,Humidity,HourlyPrecipIn,Conditions,Clouds,dailyrainin,SoftwareType,DateUTC
2013-02-05 00:00:00,18.4,13.3,29.96,NNW,336,0.0,0.0,80,0.00,,,0.00,Wunderground v.1.15,2013-02-05 05:00:00,
2013-02-05 00:04:00,18.4,13.3,29.96,NNW,343,0.0,0.0,80,0.00,,,0.00,Wunderground v.1.15,2013-02-05 05:04:00,
2013-02-05 00:10:00,18.3,12.9,29.96,NNW,342,0.0,0.0,79,0.00,,,0.00,Wunderground v.1.15,2013-02-05 05:10:00,
2013-02-05 00:15:00,18.3,12.6,29.96,North,356,0.0,0.0,78,0.00,,,0.00,Wunderground v.1.15,2013-02-05 05:15:00,
2013-02-05 00:25:00,18.2,11.9,29.96,NW,307,0.0,0.0,76,0.00,,,0.00,Wunderground v.1.15,2013-02-05 05:25:00,
2013-02-05 00:35:00,18.1,11.8,29.95,NW,306,0.0,0.0,76,0.00,,,0.00,Wunderground v.1.15,2013-02-05 05:35:00,
2013-02-05 00:40:00,18.1,11.8,29.95,NW,307,0.0,0.0,76,0.00,,,0.00,Wunderground v.1.15,2013-02-05 05:40:00,
2013-02-05 00:50:00,17.9,11.6,29.95,WSW,240,0.0,0.0,76,0.00,,,0.00,Wunderground v.1.15,2013-02-05 05:50:00,
2013-02-05 00:55:00,17.9,11.3,29.95,WSW,241,0.0,0.0,75,0.00,,,0.00,Wunderground v.1.15,2013-02-05 05:55:00,
2013-02-05 01:00:00,17.8,11.5,29.95,WSW,240,0.0,0.0,76,0.00,,,0.00,Wunderground v.1.15,2013-02-05 06:00:00,
2013-02-05 01:10:00,17.7,11.1,29.95,WSW,240,0.0,0.0,75,0.00,,,0.00,Wunderground v.1.15,2013-02-05 06:10:00,
2013-02-05 01:15:00,17.7,11.4,29.95,WSW,240,0.0,0.0,76,0.00,,,0.00,Wunderground v.1.15,2013-02-05 06:15:00,
2013-02-05 01:25:00,17.8,11.8,29.95,WSW,246,0.0,0.0,77,0.00,,,0.00,Wunderground v.1.15,2013-02-05 06:25:00,
2013-02-05 01:30:00,17.8,11.5,29.95,WSW,246,0.0,0.0,76,0.00,,,0.00,Wunderground v.1.15,2013-02-05 06:30:00,
2013-02-05 01:39:00,17.7,11.7,29.95,WSW,246,0.0,0.0,77,0.00,,,0.00,Wunderground v.1.15,2013-02-05 06:39:00,
2013-02-05 01:45:00,17.8,11.8,29.95,WSW,246,0.0,0.0,77,0.00,,,0.00,Wunderground v.1.15,2013-02-05 06:45:00,
2013-02-05 01:55:00,17.9,12.2,29.95,WSW,246,0.0,0.0,78,0.00,,,0.00,Wunderground v.1.15,2013-02-05 06:55:00,
2013-02-05 02:00:00,17.9,12.2,29.95,West,262,0.0,0.0,78,0.00,,,0.00,Wunderground v.1.15,2013-02-05 07:00:00,
2013-02-05 02:10:00,18.0,12.3,29.95,NW,322,0.0,0.0,78,0.00,,,0.00,Wunderground v.1.15,2013-02-05 07:10:00,
2013-02-05 02:15:00,18.0,12.3,29.95,NW,321,0.0,0.0,78,0.00,,,0.00,Wunderground v.1.15,2013-02-05 07:15:00,
2013-02-05 02:20:00,17.9,12.5,29.95,NW,322,0.0,0.0,79,0.00,,,0.00,Wunderground v.1.15,2013-02-05 07:20:00,
2013-02-05 02:30:00,17.9,12.5,29.96,NW,308,0.0,0.0,79,0.00,,,0.00,Wunderground v.1.15,2013-02-05 07:30:00,
2013-02-05 02:35:00,17.8,12.4,29.96,NNW,328,0.0,0.0,79,0.00,,,0.00,Wunderground v.1.15,2013-02-05 07:35:00,
2013-02-05 02:45:00,17.7,12.6,29.96,NW,324,0.0,0.0,80,0.00,,,0.00,Wunderground v.1.15,2013-02-05 07:45:00,
2013-02-05 02:50:00,17.7,12.9,29.96,North,10,0.0,0.0,81,0.00,,,0.00,Wunderground v.1.15,2013-02-05 07:50:00,
2013-02-05 02:59:00,17.4,12.8,29.96,NE,44,0.0,0.0,82,0.00,,,0.00,Wunderground v.1.15,2013-02-05 07:59:00,
2013-02-05 03:05:00,17.3,13.0,29.96,North,5,1.0,1.0,83,0.00,,,0.00,Wunderground v.1.15,2013-02-05 08:05:00,
2013-02-05 03:10:00,17.3,13.3,29.96,NNW,341,1.0,1.0,84,0.00,,,0.00,Wunderground v.1.15,2013-02-05 08:10:00,
2013-02-05 03:15:00,17.2,13.2,29.96,NW,326,1.0,1.0,84,0.00,,,0.00,Wunderground v.1.15,2013-02-05 08:15:00,
2013-02-05 03:24:00,17.0,13.3,29.95,NE,42,1.0,2.0,85,0.00,,,0.00,Wunderground v.1.15,2013-02-05 08:24:00,
2013-02-05 03:30:00,17.0,13.5,29.95,North,354,1.0,1.0,86,0.00,,,0.00,Wunderground v.1.15,2013-02-05 08:30:00,
2013-02-05 03:40:00,16.9,13.4,29.95,NE,39,0.0,1.0,86,0.00,,,0.00,Wunderground v.1.15,2013-02-05 08:40:00,
2013-02-05 03:50:00,16.8,13.6,29.95,NNW,345,1.0,1.0,87,0.00,,,0.00,Wunderground v.1.15,2013-02-05 08:50:00,
2013-02-05 03:55:00,16.7,13.5,29.95,North,8,1.0,1.0,87,0.00,,,0.00,Wunderground v.1.15,2013-02-05 08:55:00,
2013-02-05 04:05:00,16.5,13.3,29.94,NE,51,0.0,0.0,87,0.00,,,0.00,Wunderground v.1.15,2013-02-05 09:05:00,
2013-02-05 04:15:00,16.3,13.1,29.95,NE,51,0.0,1.0,87,0.00,,,0.00,Wunderground v.1.15,2013-02-05 09:15:00,
2013-02-05 04:20:00,16.2,13.0,29.95,NNE,32,0.0,0.0,87,0.00,,,0.00,Wunderground v.1.15,2013-02-05 09:20:00,
2013-02-05 04:25:00,16.0,12.8,29.95,NNE,23,0.0,0.0,87,0.00,,,0.00,Wunderground v.1.15,2013-02-05 09:25:00,
2013-02-05 04:34:00,15.8,12.9,29.95,North,352,0.0,0.0,88,0.00,,,0.00,Wunderground v.1.15,2013-02-05 09:34:00,
2013-02-05 04:40:00,15.8,12.9,29.95,NNE,23,0.0,1.0,88,0.00,,,0.00,Wunderground v.1.15,2013-02-05 09:40:00,
2013-02-05 04:50:00,15.6,12.7,29.96,NNE,20,0.0,0.0,88,0.00,,,0.00,Wunderground v.1.15,2013-02-05 09:50:00,
2013-02-05 04:55:00,15.6,12.9,29.96,NNE,20,0.0,0.0,89,0.00,,,0.00,Wunderground v.1.15,2013-02-05 09:55:00,
2013-02-05 05:00:00,15.5,12.8,29.96,NE,42,0.0,0.0,89,0.00,,,0.00,Wunderground v.1.15,2013-02-05 10:00:00,
2013-02-05 05:10:00,15.5,12.8,29.96,NE,56,0.0,0.0,89,0.00,,,0.00,Wunderground v.1.15,2013-02-05 10:10:00,
2013-02-05 05:20:00,15.4,12.7,29.97,ENE,70,0.0,0.0,89,0.00,,,0.00,Wunderground v.1.15,2013-02-05 10:20:00,
2013-02-05 05:29:00,15.3,12.6,29.97,ENE,65,0.0,0.0,89,0.00,,,0.00,Wunderground v.1.15,2013-02-05 10:29:00,
2013-02-05 05:35:00,15.3,12.6,29.97,East,81,0.0,0.0,89,0.00,,,0.00,Wunderground v.1.15,2013-02-05 10:35:00,
2013-02-05 05:40:00,15.2,12.5,29.97,NNE,18,0.0,0.0,89,0.00,,,0.00,Wunderground v.1.15,2013-02-05 10:40:00,
2013-02-05 05:45:00,15.1,12.4,29.97,NNE,18,0.0,0.0,89,0.00,,,0.00,Wunderground v.1.15,2013-02-05 10:45:00,
2013-02-05 05:55:00,14.9,12.5,29.97,NE,34,0.0,0.0,90,0.00,,,0.00,Wunderground v.1.15,2013-02-05 10:55:00,
2013-02-05 06:00:00,14.9,12.5,29.97,NE,34,0.0,0.0,90,0.00,,,0.00,Wunderground v.1.15,2013-02-05 11:00:00,
2013-02-05 06:05:00,14.9,12.5,29.97,NE,34,0.0,0.0,90,0.00,,,0.00,Wunderground v.1.15,2013-02-05 11:05:00,
2013-02-05 06:10:00,14.9,12.5,29.97,NE,34,0.0,0.0,90,0.00,,,0.00,Wunderground v.1.15,2013-02-05 11:10:00,
2013-02-05 06:15:00,14.8,12.4,29.96,NE,34,0.0,0.0,90,0.00,,,0.00,Wunderground v.1.15,2013-02-05 11:15:00,
2013-02-05 06:25:00,14.7,12.3,29.96,NE,34,0.0,0.0,90,0.00,,,0.00,Wunderground v.1.15,2013-02-05 11:25:00,
2013-02-05 06:35:00,14.8,12.4,29.96,NE,34,0.0,0.0,90,0.00,,,0.00,Wunderground v.1.15,2013-02-05 11:35:00,
2013-02-05 06:40:00,14.9,12.5,29.96,East,86,0.0,0.0,90,0.00,,,0.00,Wunderground v.1.15,2013-02-05 11:40:00,
2013-02-05 06:45:00,14.9,12.5,29.96,East,86,0.0,0.0,90,0.00,,,0.00,Wunderground v.1.15,2013-02-05 11:45:00,
2013-02-05 06:50:00,14.9,12.5,29.96,NE,49,0.0,0.0,90,0.00,,,0.00,Wunderground v.1.15,2013-02-05 11:50:00,
2013-02-05 07:00:00,15.0,12.6,29.96,NE,49,0.0,0.0,90,0.00,,,0.00,Wunderground v.1.15,2013-02-05 12:00:00,
2013-02-05 07:05:00,15.1,12.7,29.96,NE,49,0.0,0.0,90,0.00,,,0.00,Wunderground v.1.15,2013-02-05 12:05:00,
2013-02-05 07:15:00,15.1,12.7,29.96,East,92,0.0,0.0,90,0.00,,,0.00,Wunderground v.1.15,2013-02-05 12:15:00,
2013-02-05 07:20:00,15.1,12.7,29.96,East,91,0.0,0.0,90,0.00,,,0.00,Wunderground v.1.15,2013-02-05 12:20:00,
2013-02-05 07:30:00,15.1,12.7,29.97,North,359,0.0,0.0,90,0.00,,,0.00,Wunderground v.1.15,2013-02-05 12:30:00,
2013-02-05 07:40:00,15.2,13.0,29.97,ENE,64,0.0,0.0,91,0.00,,,0.00,Wunderground v.1.15,2013-02-05 12:40:00,
2013-02-05 07:50:00,15.2,12.8,29.97,ENE,63,0.0,0.0,90,0.00,,,0.00,Wunderground v.1.15,2013-02-05 12:50:00,
2013-02-05 08:00:00,15.4,13.0,29.97,ENE,64,0.0,0.0,90,0.00,,,0.00,Wunderground v.1.15,2013-02-05 13:00:00,
2013-02-05 08:10:00,15.5,13.3,29.97,ENE,64,0.0,0.0,91,0.00,,,0.00,Wunderground v.1.15,2013-02-05 13:10:00,
2013-02-05 08:15:00,15.6,13.2,29.97,ENE,66,0.0,0.0,90,0.00,,,0.00,Wunderground v.1.15,2013-02-05 13:15:00,
2013-02-05 08:24:00,16.0,13.6,29.97,East,93,0.0,0.0,90,0.00,,,0.00,Wunderground v.1.15,2013-02-05 13:24:00,
2013-02-05 08:30:00,16.4,14.0,29.97,East,94,0.0,0.0,90,0.00,,,0.00,Wunderground v.1.15,2013-02-05 13:30:00,
2013-02-05 08:40:00,16.9,14.2,29.97,ENE,64,0.0,0.0,89,0.00,,,0.00,Wunderground v.1.15,2013-02-05 13:40:00,
2013-02-05 08:50:00,17.4,14.2,29.97,East,100,0.0,0.0,87,0.00,,,0.00,Wunderground v.1.15,2013-02-05 13:50:00,
2013-02-05 08:55:00,17.8,14.3,29.97,East,100,0.0,0.0,86,0.00,,,0.00,Wunderground v.1.15,2013-02-05 13:55:00,
2013-02-05 09:04:00,18.4,14.1,29.97,East,89,0.0,2.0,83,0.00,,,0.00,Wunderground v.1.15,2013-02-05 14:04:00,
2013-02-05 09:10:00,18.7,14.1,29.97,East,93,1.0,1.0,82,0.00,,,0.00,Wunderground v.1.15,2013-02-05 14:10:00,
2013-02-05 09:19:00,18.9,14.0,29.97,ESE,113,0.0,1.0,81,0.00,,,0.00,Wunderground v.1.15,2013-02-05 14:19:00,
2013-02-05 09:25:00,19.2,14.3,29.97,East,96,0.0,1.0,81,0.00,,,0.00,Wunderground v.1.15,2013-02-05 14:25:00,
2013-02-05 09:30:00,19.7,14.5,29.97,ESE,110,0.0,0.0,80,0.00,,,0.00,Wunderground v.1.15,2013-02-05 14:30:00,
2013-02-05 09:40:00,20.3,14.5,29.97,East,93,0.0,1.0,78,0.00,,,0.00,Wunderground v.1.15,2013-02-05 14:40:00,
2013-02-05 09:45:00,20.6,14.5,29.97,East,99,0.0,1.0,77,0.00,,,0.00,Wunderground v.1.15,2013-02-05 14:45:00,
2013-02-05 09:55:00,21.5,14.8,29.97,NE,56,1.0,1.0,75,0.00,,,0.00,Wunderground v.1.15,2013-02-05 14:55:00,
2013-02-05 10:00:00,21.8,15.1,29.97,East,81,0.0,1.0,75,0.00,,,0.00,Wunderground v.1.15,2013-02-05 15:00:00,
2013-02-05 10:05:00,21.8,14.8,29.97,ESE,111,1.0,1.0,74,0.00,,,0.00,Wunderground v.1.15,2013-02-05 15:05:00,
2013-02-05 10:15:00,22.2,14.9,29.97,SSE,165,0.0,1.0,73,0.00,,,0.00,Wunderground v.1.15,2013-02-05 15:15:00,
2013-02-05 10:25:00,24.1,15.7,29.97,ENE,78,0.0,0.0,70,0.00,,,0.00,Wunderground v.1.15,2013-02-05 15:25:00,
2013-02-05 10:30:00,25.0,16.3,29.97,SSW,207,0.0,0.0,69,0.00,,,0.00,Wunderground v.1.15,2013-02-05 15:30:00,
2013-02-05 10:40:00,26.0,15.8,29.96,SSE,148,1.0,1.0,65,0.00,,,0.00,Wunderground v.1.15,2013-02-05 15:40:00,
2013-02-05 10:45:00,25.9,15.0,29.96,SE,142,1.0,1.0,63,0.00,,,0.00,Wunderground v.1.15,2013-02-05 15:45:00,
2013-02-05 10:55:00,25.7,14.8,29.96,SSW,208,2.0,2.0,63,0.00,,,0.00,Wunderground v.1.15,2013-02-05 15:55:00,
2013-02-05 11:00:00,26.2,14.9,29.95,SSE,154,1.0,3.0,62,0.00,,,0.00,Wunderground v.1.15,2013-02-05 16:00:00,
2013-02-05 11:10:00,26.9,15.6,29.96,WSW,252,1.0,1.0,62,0.00,,,0.00,Wunderground v.1.15,2013-02-05 16:10:00,
2013-02-05 11:20:00,27.5,15.0,29.96,SSE,163,0.0,2.0,59,0.00,,,0.00,Wunderground v.1.15,2013-02-05 16:20:00,
2013-02-05 11:30:00,27.9,15.4,29.95,NW,307,0.0,0.0,59,0.00,,,0.00,Wunderground v.1.15,2013-02-05 16:30:00,
2013-02-05 11:35:00,27.8,15.3,29.95,West,259,0.0,3.0,59,0.00,,,0.00,Wunderground v.1.15,2013-02-05 16:35:00,
2013-02-05 11:40:00,27.3,14.8,29.95,SE,146,1.0,2.0,59,0.00,,,0.00,Wunderground v.1.15,2013-02-05 16:40:00,
2013-02-05 11:50:00,27.6,15.9,29.94,SW,231,1.0,1.0,61,0.00,,,0.00,Wunderground v.1.15,2013-02-05 16:50:00,
2013-02-05 12:00:00,28.0,15.9,29.93,SSE,155,0.0,0.0,60,0.00,,,0.00,Wunderground v.1.15,2013-02-05 17:00:00,
2013-02-05 12:10:00,28.7,16.2,29.93,WNW,290,1.0,1.0,59,0.00,,,0.00,Wunderground v.1.15,2013-02-05 17:10:00,
2013-02-05 12:20:00,29.5,15.7,29.92,SW,222,0.0,0.0,56,0.00,,,0.00,Wunderground v.1.15,2013-02-05 17:20:00,
2013-02-05 12:30:00,29.6,16.2,29.92,WSW,256,1.0,1.0,57,0.00,,,0.00,Wunderground v.1.15,2013-02-05 17:30:00,
2013-02-05 12:40:00,29.2,15.4,29.92,South,189,1.0,1.0,56,0.00,,,0.00,Wunderground v.1.15,2013-02-05 17:40:00,
2013-02-05 12:45:00,28.7,15.0,29.92,SSW,205,1.0,1.0,56,0.00,,,0.00,Wunderground v.1.15,2013-02-05 17:45:00,
2013-02-05 12:55:00,28.1,14.4,29.92,SSW,208,2.0,2.0,56,0.00,,,0.00,Wunderground v.1.15,2013-02-05 17:55:00,
2013-02-05 13:00:00,28.1,15.2,29.92,SW,220,2.0,3.0,58,0.00,,,0.00,Wunderground v.1.15,2013-02-05 18:00:00,
2013-02-05 13:10:00,28.8,15.5,29.91,SW,218,1.0,1.0,57,0.00,,,0.00,Wunderground v.1.15,2013-02-05 18:10:00,
2013-02-05 13:15:00,29.2,15.8,29.91,South,172,1.0,4.0,57,0.00,,,0.00,Wunderground v.1.15,2013-02-05 18:15:00,
2013-02-05 13:25:00,29.4,15.6,29.91,WNW,288,1.0,3.0,56,0.00,,,0.00,Wunderground v.1.15,2013-02-05 18:25:00,
2013-02-05 13:30:00,29.0,14.8,29.90,ESE,121,1.0,1.0,55,0.00,,,0.00,Wunderground v.1.15,2013-02-05 18:30:00,
2013-02-05 13:40:00,28.9,14.7,29.90,SSW,198,1.0,1.0,55,0.00,,,0.00,Wunderground v.1.15,2013-02-05 18:40:00,
2013-02-05 13:45:00,28.8,15.1,29.90,SE,145,2.0,2.0,56,0.00,,,0.00,Wunderground v.1.15,2013-02-05 18:45:00,
2013-02-05 13:55:00,29.5,16.1,29.89,SW,236,1.0,2.0,57,0.00,,,0.00,Wunderground v.1.15,2013-02-05 18:55:00,
2013-02-05 14:00:00,29.2,15.8,29.89,NW,322,1.0,1.0,57,0.00,,,0.00,Wunderground v.1.15,2013-02-05 19:00:00,
2013-02-05 14:10:00,28.7,15.4,29.88,South,169,1.0,1.0,57,0.00,,,0.00,Wunderground v.1.15,2013-02-05 19:10:00,
2013-02-05 14:15:00,28.2,14.9,29.88,SW,231,2.0,2.0,57,0.00,,,0.00,Wunderground v.1.15,2013-02-05 19:15:00,
2013-02-05 14:25:00,27.9,15.4,29.87,SE,131,2.0,3.0,59,0.00,,,0.00,Wunderground v.1.15,2013-02-05 19:25:00,
2013-02-05 14:30:00,27.8,15.3,29.87,SSE,150,2.0,2.0,59,0.00,,,0.00,Wunderground v.1.15,2013-02-05 19:30:00,
2013-02-05 14:35:00,27.7,15.2,29.87,SW,235,2.0,2.0,59,0.00,,,0.00,Wunderground v.1.15,2013-02-05 19:35:00,
2013-02-05 14:45:00,27.5,15.0,29.86,WSW,249,2.0,4.0,59,0.00,,,0.00,Wunderground v.1.15,2013-02-05 19:45:00,
2013-02-05 14:55:00,27.6,15.1,29.86,SW,214,2.0,6.0,59,0.00,,,0.00,Wunderground v.1.15,2013-02-05 19:55:00,
2013-02-05 15:05:00,27.3,15.6,29.86,SSE,153,1.0,2.0,61,0.00,,,0.00,Wunderground v.1.15,2013-02-05 20:05:00,
2013-02-05 15:15:00,27.3,15.6,29.87,SW,220,1.0,1.0,61,0.00,,,0.00,Wunderground v.1.15,2013-02-05 20:15:00,
2013-02-05 15:25:00,27.3,15.2,29.86,SW,215,2.0,2.0,60,0.00,,,0.00,Wunderground v.1.15,2013-02-05 20:25:00,
2013-02-05 15:30:00,27.4,15.7,29.86,West,268,1.0,1.0,61,0.00,,,0.00,Wunderground v.1.15,2013-02-05 20:30:00,
2013-02-05 15:40:00,27.2,15.1,29.87,South,177,2.0,2.0,60,0.00,,,0.00,Wunderground v.1.15,2013-02-05 20:40:00,
2013-02-05 15:45:00,27.1,15.4,29.87,SSE,164,1.0,2.0,61,0.00,,,0.00,Wunderground v.1.15,2013-02-05 20:45:00,
2013-02-05 15:50:00,27.2,16.3,29.87,WNW,293,1.0,1.0,63,0.00,,,0.00,Wunderground v.1.15,2013-02-05 20:50:00,
2013-02-05 16:00:00,27.4,16.1,29.86,South,190,1.0,1.0,62,0.00,,,0.00,Wunderground v.1.15,2013-02-05 21:00:00,
2013-02-05 16:05:00,27.3,16.0,29.87,SW,226,2.0,2.0,62,0.00,,,0.00,Wunderground v.1.15,2013-02-05 21:05:00,
2013-02-05 16:10:00,27.3,16.0,29.87,SW,215,2.0,5.0,62,0.00,,,0.00,Wunderground v.1.15,2013-02-05 21:10:00,
2013-02-05 16:20:00,27.3,16.7,29.87,SW,224,2.0,2.0,64,0.00,,,0.00,Wunderground v.1.15,2013-02-05 21:20:00,
2013-02-05 16:25:00,27.1,16.5,29.87,SW,215,2.0,2.0,64,0.00,,,0.00,Wunderground v.1.15,2013-02-05 21:25:00,
2013-02-05 16:35:00,26.4,16.9,29.87,SW,219,1.0,1.0,67,0.00,,,0.00,Wunderground v.1.15,2013-02-05 21:35:00,
2013-02-05 16:45:00,25.8,17.0,29.87,SW,236,1.0,2.0,69,0.00,,,0.00,Wunderground v.1.15,2013-02-05 21:45:00,
2013-02-05 16:50:00,25.8,17.4,29.87,WSW,246,1.0,1.0,70,0.00,,,0.00,Wunderground v.1.15,2013-02-05 21:50:00,
2013-02-05 16:55:00,25.7,17.3,29.87,SSW,195,1.0,1.0,70,0.00,,,0.00,Wunderground v.1.15,2013-02-05 21:55:00,
2013-02-05 17:00:00,25.5,17.4,29.87,SW,224,1.0,1.0,71,0.00,,,0.00,Wunderground v.1.15,2013-02-05 22:00:00,
2013-02-05 17:10:00,25.3,17.5,29.87,SW,219,1.0,1.0,72,0.00,,,0.00,Wunderground v.1.15,2013-02-05 22:10:00,
2013-02-05 17:20:00,25.2,17.8,29.88,SW,221,1.0,1.0,73,0.00,,,0.00,Wunderground v.1.15,2013-02-05 22:20:00,
2013-02-05 17:30:00,25.0,17.6,29.88,SW,233,1.0,1.0,73,0.00,,,0.00,Wunderground v.1.15,2013-02-05 22:30:00,
2013-02-05 17:40:00,24.9,18.1,29.89,SW,226,1.0,1.0,75,0.00,,,0.00,Wunderground v.1.15,2013-02-05 22:40:00,
2013-02-05 17:45:00,24.8,18.3,29.88,WNW,285,1.0,2.0,76,0.00,,,0.00,Wunderground v.1.15,2013-02-05 22:45:00,
2013-02-05 17:55:00,24.8,18.6,29.89,WSW,240,1.0,1.0,77,0.00,,,0.00,Wunderground v.1.15,2013-02-05 22:55:00,
2013-02-05 18:00:00,24.7,18.5,29.89,SW,220,0.0,0.0,77,0.00,,,0.00,Wunderground v.1.15,2013-02-05 23:00:00,
2013-02-05 18:05:00,24.6,18.7,29.89,SSW,195,0.0,0.0,78,0.00,,,0.00,Wunderground v.1.15,2013-02-05 23:05:00,
2013-02-05 18:15:00,24.5,18.6,29.89,NW,309,1.0,1.0,78,0.00,,,0.00,Wunderground v.1.15,2013-02-05 23:15:00,
2013-02-05 18:20:00,24.4,18.8,29.88,WSW,239,1.0,1.0,79,0.00,,,0.00,Wunderground v.1.15,2013-02-05 23:20:00,
2013-02-05 18:30:00,24.3,19.0,29.89,WSW,248,0.0,0.0,80,0.00,,,0.00,Wunderground v.1.15,2013-02-05 23:30:00,
2013-02-05 18:40:00,24.2,19.2,29.89,WSW,257,0.0,0.0,81,0.00,,,0.00,Wunderground v.1.15,2013-02-05 23:40:00,
2013-02-05 18:50:00,24.1,19.4,29.89,WSW,254,0.0,0.0,82,0.00,,,0.00,Wunderground v.1.15,2013-02-05 23:50:00,
2013-02-05 19:00:00,24.3,19.6,29.89,SSW,208,0.0,1.0,82,0.00,,,0.00,Wunderground v.1.15,2013-02-06 00:00:00,
2013-02-05 19:10:00,24.4,19.7,29.90,WSW,246,0.0,1.0,82,0.00,,,0.00,Wunderground v.1.15,2013-02-06 00:10:00,
2013-02-05 19:20:00,24.5,20.1,29.90,West,259,0.0,0.0,83,0.00,,,0.00,Wunderground v.1.15,2013-02-06 00:20:00,
2013-02-05 19:25:00,24.5,20.1,29.90,SSW,211,1.0,1.0,83,0.00,,,0.00,Wunderground v.1.15,2013-02-06 00:25:00,
2013-02-05 19:35:00,24.5,20.1,29.90,ESE,111,0.0,1.0,83,0.00,,,0.00,Wunderground v.1.15,2013-02-06 00:35:00,
2013-02-05 19:40:00,24.5,20.1,29.90,SW,235,0.0,1.0,83,0.00,,,0.00,Wunderground v.1.15,2013-02-06 00:40:00,
2013-02-05 19:45:00,24.6,20.2,29.90,West,278,0.0,2.0,83,0.00,,,0.00,Wunderground v.1.15,2013-02-06 00:45:00,
2013-02-05 19:55:00,24.8,20.1,29.90,WSW,256,1.0,3.0,82,0.00,,,0.00,Wunderground v.1.15,2013-02-06 00:55:00,
2013-02-05 20:00:00,24.9,20.2,29.90,West,273,1.0,2.0,82,0.00,,,0.00,Wunderground v.1.15,2013-02-06 01:00:00,
2013-02-05 20:10:00,24.7,20.0,29.90,WSW,244,2.0,2.0,82,0.00,,,0.00,Wunderground v.1.15,2013-02-06 01:10:00,
2013-02-05 20:20:00,24.5,20.1,29.90,SSW,210,1.0,1.0,83,0.00,,,0.00,Wunderground v.1.15,2013-02-06 01:20:00,
2013-02-05 20:25:00,24.4,20.0,29.89,West,267,1.0,2.0,83,0.00,,,0.00,Wunderground v.1.15,2013-02-06 01:25:00,
2013-02-05 20:35:00,24.4,20.0,29.89,WSW,255,1.0,1.0,83,0.00,,,0.00,Wunderground v.1.15,2013-02-06 01:35:00,
2013-02-05 20:40:00,24.3,19.6,29.89,SW,217,1.0,2.0,82,0.00,,,0.00,Wunderground v.1.15,2013-02-06 01:40:00,
2013-02-05 20:50:00,24.4,19.7,29.89,SSW,205,1.0,2.0,82,0.00,,,0.00,Wunderground v.1.15,2013-02-06 01:50:00,
2013-02-05 20:55:00,24.4,19.7,29.89,SW,221,0.0,2.0,82,0.00,,,0.00,Wunderground v.1.15,2013-02-06 01:55:00,
2013-02-05 21:05:00,24.4,19.7,29.89,WSW,239,1.0,1.0,82,0.00,,,0.00,Wunderground v.1.15,2013-02-06 02:05:00,
2013-02-05 21:15:00,24.5,19.8,29.89,SSW,205,1.0,2.0,82,0.00,,,0.00,Wunderground v.1.15,2013-02-06 02:15:00,
2013-02-05 21:25:00,24.7,20.3,29.89,SSW,204,1.0,3.0,83,0.00,,,0.00,Wunderground v.1.15,2013-02-06 02:25:00,
2013-02-05 21:35:00,25.2,20.8,29.89,SSW,201,2.0,2.0,83,0.00,,,0.00,Wunderground v.1.15,2013-02-06 02:35:00,
2013-02-05 21:40:00,25.4,21.2,29.89,SW,224,2.0,2.0,84,0.00,,,0.00,Wunderground v.1.15,2013-02-06 02:40:00,
2013-02-05 21:45:00,25.6,21.4,29.89,West,262,1.0,2.0,84,0.00,,,0.00,Wunderground v.1.15,2013-02-06 02:45:00,
2013-02-05 21:55:00,26.1,22.2,29.90,SW,218,2.0,2.0,85,0.00,,,0.00,Wunderground v.1.15,2013-02-06 02:55:00,
2013-02-05 22:00:00,26.3,22.7,29.89,WSW,246,2.0,4.0,86,0.00,,,0.00,Wunderground v.1.15,2013-02-06 03:00:00,
2013-02-05 22:05:00,26.4,22.5,29.89,WSW,256,3.0,4.0,85,0.00,,,0.00,Wunderground v.1.15,2013-02-06 03:05:00,
2013-02-05 22:15:00,26.6,20.7,29.89,WSW,248,3.0,6.0,78,0.00,,,0.00,Wunderground v.1.15,2013-02-06 03:15:00,
2013-02-05 22:20:00,26.8,19.9,29.89,SW,233,3.0,3.0,75,0.00,,,0.00,Wunderground v.1.15,2013-02-06 03:20:00,
2013-02-05 22:30:00,27.0,20.4,29.89,SW,232,4.0,4.0,76,0.00,,,0.00,Wunderground v.1.15,2013-02-06 03:30:00,
2013-02-05 22:40:00,26.9,21.3,29.89,WNW,283,3.0,3.0,79,0.00,,,0.00,Wunderground v.1.15,2013-02-06 03:40:00,
2013-02-05 22:50:00,26.9,21.8,29.89,SSW,212,2.0,6.0,81,0.00,,,0.00,Wunderground v.1.15,2013-02-06 03:50:00,
2013-02-05 23:00:00,26.7,22.2,29.90,West,280,3.0,4.0,83,0.00,,,0.00,Wunderground v.1.15,2013-02-06 04:00:00,
2013-02-05 23:10:00,26.5,22.3,29.89,WNW,284,3.0,4.0,84,0.00,,,0.00,Wunderground v.1.15,2013-02-06 04:10:00,
2013-02-05 23:15:00,26.5,22.6,29.89,SW,224,2.0,9.0,85,0.00,,,0.00,Wunderground v.1.15,2013-02-06 04:15:00,
2013-02-05 23:25:00,26.2,22.6,29.89,SSE,167,3.0,3.0,86,0.00,,,0.00,Wunderground v.1.15,2013-02-06 04:25:00,
2013-02-05 23:30:00,26.1,22.8,29.89,WSW,241,3.0,3.0,87,0.00,,,0.00,Wunderground v.1.15,2013-02-06 04:30:00,
2013-02-05 23:40:00,26.1,22.5,29.90,West,267,3.0,3.0,86,0.00,,,0.00,Wunderground v.1.15,2013-02-06 04:40:00,
2013-02-05 23:50:00,26.2,22.9,29.90,SSW,207,3.0,3.0,87,0.00,,,0.00,Wunderground v.1.15,2013-02-06 04:50:00,
2013-02-05 23:55:00,26.3,23.0,29.90,SW,230,3.0,4.0,87,0.00,,,0.00,Wunderground v.1.15,2013-02-06 04:55:00,